TimeEST,TemperatureF,Dew PointF,Humidity,Sea Level PressureIn,VisibilityMPH,Wind Direction,Wind SpeedMPH,Gust SpeedMPH,PrecipitationIn,Events,Conditions,WindDirDegrees,DateUTC
12:53 AM,5.0,-14.1,41,30.10,10.0,WNW,11.5,-,N/A,,Clear,290,2013-01-24 05:53:00
1:53 AM,5.0,-14.1,41,30.11,10.0,WNW,11.5,-,N/A,,Clear,300,2013-01-24 06:53:00
2:53 AM,3.9,-15.0,41,30.09,10.0,West,13.8,20.7,N/A,,Clear,280,2013-01-24 07:53:00
3:53 AM,3.0,-15.0,43,30.09,10.0,West,10.4,-,N/A,,Clear,280,2013-01-24 08:53:00
4:53 AM,1.9,-14.1,47,30.08,10.0,WNW,9.2,-,N/A,,Clear,300,2013-01-24 09:53:00
5:53 AM,1.9,-15.0,45,30.09,10.0,NW,11.5,-,N/A,,Clear,310,2013-01-24 10:53:00
6:53 AM,1.9,-16.1,43,30.09,10.0,WNW,15.0,23.0,N/A,,Clear,300,2013-01-24 11:53:00
7:53 AM,3.0,-15.0,43,30.10,10.0,NW,12.7,-,N/A,,Clear,310,2013-01-24 12:53:00
8:53 AM,5.0,-15.0,39,30.11,10.0,WNW,12.7,20.7,N/A,,Clear,300,2013-01-24 13:53:00
9:53 AM,8.1,-15.0,34,30.10,10.0,NW,18.4,24.2,N/A,,Clear,320,2013-01-24 14:53:00
10:53 AM,12.0,-13.0,32,30.08,10.0,WNW,17.3,25.3,N/A,,Clear,300,2013-01-24 15:53:00
11:53 AM,14.0,-13.0,29,30.06,10.0,NW,13.8,28.8,N/A,,Clear,320,2013-01-24 16:53:00
12:53 PM,16.0,-14.1,26,30.05,10.0,NW,16.1,27.6,N/A,,Clear,310,2013-01-24 17:53:00
1:53 PM,17.1,-13.0,26,30.03,10.0,WNW,15.0,33.4,N/A,,Clear,300,2013-01-24 18:53:00
2:53 PM,18.0,-13.0,25,30.04,10.0,WNW,15.0,27.6,N/A,,Partly Cloudy,300,2013-01-24 19:53:00
3:53 PM,18.0,-14.1,23,30.04,10.0,WNW,18.4,28.8,N/A,,Clear,290,2013-01-24 20:53:00
4:53 PM,17.1,-15.0,23,30.06,10.0,NW,19.6,39.1,N/A,,Clear,310,2013-01-24 21:53:00
5:53 PM,16.0,-15.0,24,30.09,10.0,WNW,11.5,25.3,N/A,,Clear,290,2013-01-24 22:53:00
6:53 PM,16.0,-14.1,26,30.11,10.0,West,15.0,26.5,N/A,,Clear,280,2013-01-24 23:53:00
7:53 PM,15.1,-15.0,25,30.12,10.0,WNW,16.1,32.2,N/A,,Clear,300,2013-01-25 00:53:00
8:53 PM,14.0,-15.0,27,30.14,10.0,NW,18.4,28.8,N/A,,Clear,310,2013-01-25 01:53:00
9:53 PM,12.9,-14.1,29,30.15,10.0,NW,16.1,27.6,N/A,,Clear,310,2013-01-25 02:53:00
10:53 PM,12.0,-13.0,32,30.18,10.0,NNW,9.2,-,N/A,,Clear,340,2013-01-25 03:53:00
11:53 PM,10.9,-13.0,33,30.19,10.0,NW,17.3,29.9,N/A,,Clear,310,2013-01-25 04:53:00